| time (UTC) | temp C | wind direction | speed KPH | gust KPH | rain 1hr cm | rain 24hr cm | rain mn cm | humidity % | barometer mb |
| 20260510170903 | 16 | 0 | 0.0 | 0.0 | 0.15 | 0.53 | 0.15 | 86 | 1011.1 |
| 20260510170003 | 17 | 285 | 0.0 | 1.6 | 0.13 | 0.53 | 0.13 | 76 | 1011.2 |
| 20260510165403 | 18 | 0 | 0.0 | 0.0 | 0.00 | 0.41 | 0.00 | 74 | 1010.9 |
| 20260510164503 | 18 | 0 | 0.0 | 0.0 | 0.00 | 0.41 | 0.00 | 78 | 1010.8 |
| 20260510163603 | 16 | 0 | 0.0 | 0.0 | 0.00 | 0.43 | 0.00 | 78 | 1010.9 |
| 20260510162703 | 16 | 0 | 0.0 | 0.0 | 0.00 | 0.46 | 0.00 | 79 | 1010.8 |
| 20260510161803 | 16 | 0 | 0.0 | 0.0 | 0.00 | 0.46 | 0.00 | 79 | 1010.8 |
| 20260510160903 | 16 | 0 | 0.0 | 0.0 | 0.00 | 0.48 | 0.00 | 80 | 1010.8 |
| 20260510160003 | 16 | 105 | 0.0 | 1.6 | 0.00 | 0.51 | 0.00 | 76 | 1010.9 |
| 20260510155403 | 16 | 105 | 0.0 | 1.6 | 0.00 | 0.51 | 0.00 | 76 | 1010.8 |
| 20260510154503 | 16 | 0 | 0.0 | 0.0 | 0.00 | 0.53 | 0.00 | 78 | 1010.7 |
| 20260510153624 | 16 | 0 | 0.0 | 0.0 | 0.00 | 0.58 | 0.00 | 80 | 1010.7 |
| 20260510152702 | 16 | 0 | 0.0 | 0.0 | 0.00 | 0.61 | 0.00 | 77 | 1010.8 |
| 20260510151825 | 16 | 0 | 0.0 | 0.0 | 0.00 | 0.61 | 0.00 | 82 | 1010.8 |
| 20260510150925 | 15 | 0 | 0.0 | 0.0 | 0.00 | 0.64 | 0.00 | 81 | 1010.6 |
| 20260510150003 | 15 | 0 | 0.0 | 0.0 | 0.00 | 0.64 | 0.00 | 85 | 1010.7 |
| 20260510145403 | 15 | 217 | 0.0 | 1.6 | 0.00 | 0.66 | 0.00 | 85 | 1010.7 |
| 20260510144503 | 14 | 0 | 0.0 | 0.0 | 0.00 | 0.66 | 0.00 | 87 | 1010.7 |
| 20260510143603 | 14 | 0 | 0.0 | 1.6 | 0.00 | 0.66 | 0.00 | 91 | 1010.7 |
| 20260510142703 | 13 | 15 | 0.0 | 1.6 | 0.00 | 0.69 | 0.00 | 95 | 1010.9 |
| 20260510141803 | 13 | 0 | 0.0 | 0.0 | 0.00 | 0.69 | 0.00 | 96 | 1010.7 |
| 20260510140903 | 12 | 0 | 0.0 | 0.0 | 0.00 | 0.69 | 0.00 | 97 | 1010.8 |
| 20260510140003 | 12 | 287 | 0.0 | 1.6 | 0.00 | 0.69 | 0.00 | 97 | 1010.7 |
| 20260510135403 | 12 | 0 | 0.0 | 0.0 | 0.00 | 0.69 | 0.00 | 97 | 1010.8 |
| 20260510134503 | 12 | 0 | 0.0 | 0.0 | 0.00 | 0.69 | 0.00 | 97 | 1010.9 |
| 20260510133603 | 12 | 18 | 0.0 | 6.4 | 0.00 | 0.69 | 0.00 | 97 | 1011.0 |
| 20260510132703 | 11 | 0 | 0.0 | 0.0 | 0.00 | 0.69 | 0.00 | 97 | 1011.0 |
| 20260510131803 | 11 | 0 | 0.0 | 0.0 | 0.00 | 0.69 | 0.00 | 97 | 1011.0 |
| 20260510130903 | 11 | 0 | 0.0 | 0.0 | 0.00 | 0.69 | 0.00 | 97 | 1010.9 |
| 20260510130003 | 11 | 0 | 0.0 | 0.0 | 0.00 | 0.69 | 0.00 | 97 | 1010.7 |
| 20260510125403 | 11 | 0 | 0.0 | 0.0 | 0.00 | 0.69 | 0.00 | 97 | 1010.6 |
| 20260510124524 | 11 | 0 | 0.0 | 0.0 | 0.00 | 0.69 | 0.00 | 97 | 1010.8 |
| 20260510123603 | 11 | 0 | 0.0 | 0.0 | 0.00 | 0.69 | 0.00 | 97 | 1010.9 |
| 20260510122704 | 11 | 0 | 0.0 | 0.0 | 0.00 | 0.69 | 0.00 | 97 | 1010.9 |
| 20260510121803 | 11 | 0 | 0.0 | 0.0 | 0.00 | 0.69 | 0.00 | 97 | 1010.9 |
| 20260510120903 | 10 | 0 | 0.0 | 0.0 | 0.00 | 0.69 | 0.00 | 97 | 1011.0 |
| 20260510120003 | 10 | 0 | 0.0 | 0.0 | 0.00 | 0.69 | 0.00 | 97 | 1011.0 |
| 20260510115403 | 10 | 0 | 0.0 | 0.0 | 0.00 | 0.69 | 0.00 | 97 | 1011.1 |
| 20260510114504 | 10 | 0 | 0.0 | 0.0 | 0.00 | 0.69 | 0.00 | 97 | 1010.8 |
| 20260510113604 | 10 | 0 | 0.0 | 0.0 | 0.00 | 0.69 | 0.00 | 97 | 1010.7 |
| 20260510112703 | 10 | 0 | 0.0 | 0.0 | 0.00 | 0.69 | 0.00 | 97 | 1010.5 |
| 20260510111803 | 10 | 0 | 0.0 | 0.0 | 0.00 | 0.69 | 0.00 | 97 | 1010.7 |
| 20260510110903 | 10 | 0 | 0.0 | 0.0 | 0.00 | 0.69 | 0.00 | 97 | 1010.8 |
| 20260510110003 | 10 | 0 | 0.0 | 0.0 | 0.00 | 0.69 | 0.00 | 97 | 1010.5 |
| 20260510105404 | 9 | 0 | 0.0 | 0.0 | 0.00 | 0.69 | 0.00 | 97 | 1010.5 |
| 20260510104503 | 9 | 0 | 0.0 | 0.0 | 0.00 | 0.69 | 0.00 | 97 | 1010.3 |
| 20260510103603 | 8 | 0 | 0.0 | 0.0 | 0.00 | 0.69 | 0.00 | 97 | 1010.1 |
| 20260510102724 | 8 | 0 | 0.0 | 0.0 | 0.00 | 0.69 | 0.00 | 97 | 1010.1 |
| 20260510101824 | 8 | 0 | 0.0 | 0.0 | 0.00 | 0.69 | 0.00 | 97 | 1010.0 |
| 20260510100903 | 8 | 0 | 0.0 | 0.0 | 0.00 | 0.69 | 0.00 | 97 | 1009.6 |
| 20260510100003 | 8 | 0 | 0.0 | 0.0 | 0.00 | 0.69 | 0.00 | 97 | 1009.2 |
| 20260510095403 | 8 | 0 | 0.0 | 0.0 | 0.00 | 0.69 | 0.00 | 97 | 1009.3 |
| 20260510094504 | 8 | 0 | 0.0 | 0.0 | 0.00 | 0.69 | 0.00 | 97 | 1009.0 |
| 20260510093603 | 8 | 0 | 0.0 | 0.0 | 0.00 | 0.69 | 0.00 | 97 | 1009.1 |
| 20260510092703 | 8 | 0 | 0.0 | 0.0 | 0.00 | 0.69 | 0.00 | 97 | 1009.6 |
| 20260510091824 | 8 | 0 | 0.0 | 0.0 | 0.00 | 0.69 | 0.00 | 97 | 1008.9 |
| 20260510090903 | 8 | 0 | 0.0 | 0.0 | 0.00 | 0.69 | 0.00 | 97 | 1009.2 |
| 20260510090004 | 8 | 0 | 0.0 | 0.0 | 0.00 | 0.69 | 0.00 | 97 | 1008.9 |
| 20260510085404 | 8 | 0 | 0.0 | 0.0 | 0.00 | 0.69 | 0.00 | 97 | 1009.1 |
| 20260510084524 | 8 | 0 | 0.0 | 0.0 | 0.00 | 0.69 | 0.00 | 97 | 1009.4 |
| 20260510083603 | 8 | 0 | 0.0 | 0.0 | 0.00 | 0.69 | 0.00 | 97 | 1009.5 |
| 20260510082703 | 8 | 0 | 0.0 | 0.0 | 0.00 | 0.69 | 0.00 | 97 | 1009.7 |
| 20260510081803 | 8 | 0 | 0.0 | 0.0 | 0.00 | 0.69 | 0.00 | 97 | 1009.5 |
| 20260510080903 | 8 | 0 | 0.0 | 0.0 | 0.00 | 0.69 | 0.00 | 97 | 1009.4 |
| 20260510080003 | 8 | 0 | 0.0 | 0.0 | 0.00 | 0.69 | 0.00 | 97 | 1009.7 |
| 20260510075403 | 8 | 0 | 0.0 | 0.0 | 0.00 | 0.69 | 0.00 | 97 | 1009.6 |
| 20260510074503 | 8 | 0 | 0.0 | 0.0 | 0.00 | 0.69 | 0.00 | 96 | 1009.7 |
| 20260510073603 | 8 | 0 | 0.0 | 0.0 | 0.00 | 0.69 | 0.00 | 96 | 1009.6 |
| 20260510072704 | 8 | 0 | 0.0 | 0.0 | 0.00 | 0.69 | 0.00 | 96 | 1009.7 |
| 20260510071803 | 8 | 0 | 0.0 | 0.0 | 0.00 | 0.69 | 0.00 | 96 | 1009.6 |
| 20260510070903 | 8 | 0 | 0.0 | 0.0 | 0.00 | 0.69 | 0.00 | 96 | 1009.4 |
| 20260510070003 | 8 | 0 | 0.0 | 0.0 | 0.00 | 0.69 | 0.00 | 96 | 1009.4 |
| 20260510065403 | 8 | 0 | 0.0 | 0.0 | 0.00 | 0.69 | 0.00 | 96 | 1009.6 |
| 20260510064503 | 8 | 0 | 0.0 | 0.0 | 0.00 | 0.69 | 0.00 | 96 | 1009.8 |
| 20260510063603 | 8 | 0 | 0.0 | 0.0 | 0.00 | 0.69 | 0.00 | 96 | 1009.7 |
| 20260510062703 | 8 | 0 | 0.0 | 0.0 | 0.00 | 0.69 | 0.00 | 96 | 1009.8 |
| 20260510061803 | 8 | 0 | 0.0 | 0.0 | 0.00 | 0.69 | 0.00 | 96 | 1009.8 |
| 20260510060903 | 8 | 0 | 0.0 | 0.0 | 0.00 | 0.69 | 0.00 | 96 | 1009.6 |
| 20260510060003 | 8 | 0 | 0.0 | 0.0 | 0.00 | 0.69 | 0.00 | 96 | 1009.4 |
| 20260510055403 | 8 | 0 | 0.0 | 0.0 | 0.00 | 0.69 | 0.00 | 96 | 1009.5 |
| 20260510054503 | 8 | 0 | 0.0 | 0.0 | 0.00 | 0.69 | 0.00 | 96 | 1009.8 |
| 20260510053603 | 8 | 0 | 0.0 | 0.0 | 0.00 | 0.69 | 0.00 | 96 | 1009.9 |
| 20260510052703 | 8 | 0 | 0.0 | 0.0 | 0.00 | 0.69 | 0.00 | 96 | 1009.9 |
| 20260510051803 | 8 | 0 | 0.0 | 0.0 | 0.00 | 0.69 | 0.00 | 96 | 1009.9 |
| 20260510050904 | 8 | 0 | 0.0 | 0.0 | 0.00 | 0.69 | 0.00 | 96 | 1009.8 |
| 20260510050024 | 8 | 0 | 0.0 | 0.0 | 0.00 | 0.69 | 0.00 | 96 | 1010.0 |
| 20260510045403 | 8 | 0 | 0.0 | 0.0 | 0.00 | 0.69 | 0.00 | 96 | 1010.1 |
| 20260510044524 | 8 | 0 | 0.0 | 0.0 | 0.00 | 0.69 | 0.00 | 96 | 1010.3 |
| 20260510043603 | 8 | 0 | 0.0 | 0.0 | 0.00 | 0.69 | 0.00 | 96 | 1010.2 |
| 20260510042703 | 8 | 0 | 0.0 | 0.0 | 0.00 | 0.69 | 0.00 | 96 | 1010.1 |
| 20260510041803 | 8 | 0 | 0.0 | 0.0 | 0.00 | 0.69 | 0.00 | 96 | 1010.1 |
| 20260510040903 | 8 | 0 | 0.0 | 0.0 | 0.00 | 0.69 | 0.00 | 96 | 1010.1 |
| 20260510040003 | 8 | 0 | 0.0 | 0.0 | 0.00 | 0.69 | 0.00 | 96 | 1010.2 |
| 20260510035403 | 8 | 0 | 0.0 | 0.0 | 0.00 | 0.69 | 0.69 | 96 | 1010.2 |
| 20260510034503 | 8 | 0 | 0.0 | 0.0 | 0.00 | 0.69 | 0.69 | 96 | 1010.1 |
| 20260510033603 | 8 | 0 | 0.0 | 0.0 | 0.00 | 0.69 | 0.69 | 96 | 1010.1 |
| 20260510032724 | 8 | 0 | 0.0 | 0.0 | 0.00 | 0.69 | 0.69 | 96 | 1010.1 |
| 20260510031803 | 8 | 0 | 0.0 | 0.0 | 0.00 | 0.69 | 0.69 | 96 | 1010.1 |
| 20260510030904 | 8 | 0 | 0.0 | 0.0 | 0.00 | 0.69 | 0.69 | 96 | 1010.2 |
| 20260510030024 | 8 | 0 | 0.0 | 0.0 | 0.00 | 0.69 | 0.69 | 96 | 1010.3 |
| 20260510025403 | 8 | 0 | 0.0 | 0.0 | 0.00 | 0.69 | 0.69 | 96 | 1010.3 |
| 20260510024504 | 8 | 0 | 0.0 | 0.0 | 0.00 | 0.69 | 0.69 | 96 | 1010.3 |
| 20260510023603 | 8 | 0 | 0.0 | 0.0 | 0.00 | 0.69 | 0.69 | 96 | 1010.4 |
| 20260510022724 | 8 | 0 | 0.0 | 0.0 | 0.00 | 0.69 | 0.69 | 96 | 1010.5 |
| 20260510021803 | 8 | 0 | 0.0 | 0.0 | 0.00 | 0.69 | 0.69 | 95 | 1010.4 |
| 20260510020903 | 8 | 0 | 0.0 | 0.0 | 0.00 | 0.69 | 0.69 | 96 | 1010.5 |
| 20260510020003 | 8 | 0 | 0.0 | 0.0 | 0.00 | 0.69 | 0.69 | 96 | 1010.5 |
| 20260510015403 | 8 | 0 | 0.0 | 0.0 | 0.00 | 0.69 | 0.69 | 96 | 1010.5 |
| 20260510014503 | 8 | 0 | 0.0 | 0.0 | 0.00 | 0.69 | 0.69 | 95 | 1010.7 |
| 20260510013603 | 8 | 0 | 0.0 | 0.0 | 0.00 | 0.69 | 0.69 | 95 | 1010.7 |
| 20260510012724 | 8 | 0 | 0.0 | 0.0 | 0.00 | 0.69 | 0.69 | 95 | 1010.5 |
| 20260510011803 | 8 | 0 | 0.0 | 0.0 | 0.00 | 0.69 | 0.69 | 95 | 1010.5 |
| 20260510010903 | 8 | 0 | 0.0 | 0.0 | 0.00 | 0.69 | 0.69 | 95 | 1010.5 |
| 20260510010003 | 8 | 0 | 0.0 | 0.0 | 0.00 | 0.69 | 0.69 | 95 | 1010.5 |
| 20260510005403 | 8 | 0 | 0.0 | 0.0 | 0.00 | 0.69 | 0.69 | 95 | 1010.5 |
| 20260510004503 | 8 | 0 | 0.0 | 0.0 | 0.00 | 0.69 | 0.69 | 95 | 1010.4 |
| 20260510003603 | 8 | 0 | 0.0 | 0.0 | 0.00 | 0.69 | 0.69 | 95 | 1010.4 |
| 20260510002725 | 8 | 0 | 0.0 | 0.0 | 0.00 | 0.69 | 0.69 | 95 | 1010.3 |
| 20260510001803 | 8 | 0 | 0.0 | 0.0 | 0.00 | 0.69 | 0.69 | 95 | 1010.1 |
| 20260510000903 | 8 | 0 | 0.0 | 0.0 | 0.00 | 0.69 | 0.69 | 95 | 1010.2 |
| 20260510000003 | 8 | 0 | 0.0 | 0.0 | 0.00 | 0.69 | 0.69 | 95 | 1009.9 |
| 20260509235424 | 8 | 0 | 0.0 | 0.0 | 0.00 | 0.69 | 0.69 | 95 | 1009.9 |
| 20260509234503 | 8 | 0 | 0.0 | 0.0 | 0.00 | 0.69 | 0.69 | 95 | 1009.9 |
| 20260509233603 | 8 | 0 | 0.0 | 0.0 | 0.00 | 0.69 | 0.69 | 95 | 1009.7 |
| 20260509232703 | 8 | 0 | 0.0 | 0.0 | 0.00 | 0.69 | 0.69 | 95 | 1009.7 |
| 20260509231804 | 8 | 0 | 0.0 | 0.0 | 0.00 | 0.69 | 0.69 | 95 | 1009.7 |
| 20260509230903 | 8 | 0 | 0.0 | 0.0 | 0.00 | 0.69 | 0.69 | 95 | 1009.8 |
| 20260509230004 | 8 | 0 | 0.0 | 0.0 | 0.00 | 0.69 | 0.69 | 95 | 1009.8 |
| 20260509225403 | 8 | 0 | 0.0 | 0.0 | 0.00 | 0.69 | 0.69 | 95 | 1009.8 |
| 20260509224503 | 8 | 0 | 0.0 | 0.0 | 0.00 | 0.69 | 0.69 | 95 | 1009.9 |
| 20260509223603 | 8 | 0 | 0.0 | 0.0 | 0.00 | 0.69 | 0.69 | 95 | 1010.0 |
| 20260509222724 | 8 | 0 | 0.0 | 0.0 | 0.00 | 0.69 | 0.69 | 95 | 1009.9 |
| 20260509221824 | 8 | 0 | 0.0 | 0.0 | 0.00 | 0.69 | 0.69 | 95 | 1009.9 |
| 20260509220903 | 8 | 0 | 0.0 | 0.0 | 0.00 | 0.69 | 0.69 | 95 | 1010.0 |
| 20260509220003 | 8 | 0 | 0.0 | 0.0 | 0.00 | 0.69 | 0.69 | 95 | 1010.0 |
| 20260509215403 | 8 | 0 | 0.0 | 0.0 | 0.00 | 0.69 | 0.69 | 95 | 1010.1 |
| 20260509214503 | 8 | 0 | 0.0 | 0.0 | 0.03 | 0.69 | 0.69 | 95 | 1010.1 |
| 20260509213603 | 8 | 0 | 0.0 | 0.0 | 0.03 | 0.69 | 0.69 | 95 | 1010.3 |
| 20260509212703 | 8 | 0 | 0.0 | 0.0 | 0.03 | 0.69 | 0.69 | 94 | 1010.3 |
| 20260509211803 | 8 | 0 | 0.0 | 0.0 | 0.05 | 0.69 | 0.69 | 94 | 1010.3 |
| 20260509210924 | 8 | 0 | 0.0 | 0.0 | 0.05 | 0.69 | 0.69 | 94 | 1010.4 |
| 20260509210024 | 8 | 0 | 0.0 | 0.0 | 0.05 | 0.69 | 0.69 | 94 | 1010.4 |
| 20260509205403 | 9 | 0 | 0.0 | 0.0 | 0.08 | 0.69 | 0.69 | 94 | 1010.4 |
| 20260509204503 | 8 | 0 | 0.0 | 0.0 | 0.08 | 0.66 | 0.66 | 94 | 1010.4 |
| 20260509203603 | 9 | 0 | 0.0 | 0.0 | 0.08 | 0.66 | 0.66 | 94 | 1010.5 |
| 20260509202703 | 8 | 0 | 0.0 | 0.0 | 0.08 | 0.66 | 0.66 | 94 | 1010.4 |
| 20260509201824 | 8 | 0 | 0.0 | 0.0 | 0.08 | 0.64 | 0.64 | 94 | 1010.5 |
| 20260509200903 | 8 | 0 | 0.0 | 0.0 | 0.10 | 0.64 | 0.64 | 94 | 1010.5 |
| 20260509200004 | 8 | 0 | 0.0 | 0.0 | 0.10 | 0.64 | 0.64 | 94 | 1010.6 |
| 20260509195403 | 8 | 0 | 0.0 | 0.0 | 0.10 | 0.61 | 0.61 | 94 | 1010.6 |
| 20260509194503 | 8 | 0 | 0.0 | 0.0 | 0.10 | 0.58 | 0.58 | 94 | 1010.8 |
| 20260509193603 | 8 | 0 | 0.0 | 0.0 | 0.10 | 0.58 | 0.58 | 94 | 1010.9 |
| 20260509192703 | 8 | 0 | 0.0 | 0.0 | 0.15 | 0.58 | 0.58 | 94 | 1011.0 |
| 20260509191804 | 8 | 0 | 0.0 | 0.0 | 0.13 | 0.56 | 0.56 | 94 | 1011.0 |
| 20260509190903 | 8 | 0 | 0.0 | 0.0 | 0.13 | 0.53 | 0.53 | 94 | 1011.1 |
| 20260509190003 | 8 | 0 | 0.0 | 0.0 | 0.15 | 0.53 | 0.53 | 94 | 1011.2 |
| 20260509185403 | 8 | 0 | 0.0 | 0.0 | 0.13 | 0.51 | 0.51 | 94 | 1011.2 |
| 20260509184503 | 8 | 0 | 0.0 | 0.0 | 0.13 | 0.48 | 0.48 | 94 | 1011.3 |
| 20260509183603 | 8 | 0 | 0.0 | 0.0 | 0.15 | 0.48 | 0.48 | 94 | 1011.3 |
| 20260509182703 | 8 | 0 | 0.0 | 0.0 | 0.10 | 0.43 | 0.46 | 93 | 1011.4 |
| 20260509181803 | 8 | 0 | 0.0 | 0.0 | 0.10 | 0.43 | 0.43 | 93 | 1011.6 |
| 20260509180903 | 8 | 0 | 0.0 | 0.0 | 0.10 | 0.41 | 0.41 | 93 | 1011.6 |
| 20260509180004 | 8 | 0 | 0.0 | 0.0 | 0.10 | 0.38 | 0.38 | 93 | 1011.6 |
| 20260509175424 | 8 | 0 | 0.0 | 0.0 | 0.10 | 0.38 | 0.38 | 93 | 1011.7 |
| 20260509174503 | 8 | 0 | 0.0 | 0.0 | 0.08 | 0.36 | 0.36 | 93 | 1011.8 |
| 20260509173603 | 8 | 0 | 0.0 | 0.0 | 0.08 | 0.33 | 0.33 | 93 | 1011.8 |
| 20260509172703 | 8 | 0 | 0.0 | 0.0 | 0.10 | 0.33 | 0.33 | 93 | 1012.0 |
| 20260509171803 | 8 | 0 | 0.0 | 0.0 | 0.10 | 0.33 | 0.33 | 93 | 1012.0 |